Hourly Weather Chahchah-Kazmalyar

Today, 13 June, Sunday

Time Temperature Precipitation Wind Pressure Humidity
00:00 +21°C° 0 mm 1 mps 751 mmHg 76%
01:00 +21°C° 0 mm 1 mps 751 mmHg 75%
02:00 +20°C° 0 mm 1 mps 751 mmHg 75%
03:00 +20°C° 0 mm 1 mps 751 mmHg 75%
04:00 +21°C° 0 mm 2 mps 751 mmHg 69%
05:00 +23°C° 0 mm 2 mps 750 mmHg 63%
06:00 +25°C° 0 mm 2 mps 750 mmHg 57%
07:00 +27°C° 0 mm 2 mps 750 mmHg 51%
08:00 +29°C° 0 mm 3 mps 750 mmHg 44%
09:00 +31°C° 0 mm 3 mps 749 mmHg 38%
10:00 +32°C° 0 mm 4 mps 749 mmHg 38%
11:00 +32°C° 0 mm 5 mps 749 mmHg 38%
12:00 +32°C° 0 mm 5 mps 749 mmHg 38%
13:00 +32°C° 0.1 mm 5 mps 749 mmHg 40%
14:00 +30°C° 0.1 mm 5 mps 749 mmHg 42%
15:00 +30°C° 0.1 mm 5 mps 749 mmHg 44%
16:00 +29°C° 0.1 mm 5 mps 749 mmHg 49%
17:00 +28°C° 0.1 mm 5 mps 749 mmHg 55%
18:00 +27°C° 0.1 mm 4 mps 749 mmHg 60%
19:00 +25°C° 0.1 mm 4 mps 749 mmHg 67%
20:00 +23°C° 0.1 mm 4 mps 750 mmHg 74%
21:00 +21°C° 0.1 mm 4 mps 750 mmHg 81%
22:00 +21°C° 0 mm 4 mps 750 mmHg 79%
23:00 +22°C° 0 mm 4 mps 750 mmHg 76%

Tomorrow, 14 June, Monday

Time Temperature Precipitation Wind Pressure Humidity
00:00 +22°C° 0 mm 4 mps 749 mmHg 74%
01:00 +21°C° 0 mm 4 mps 749 mmHg 75%
02:00 +21°C° 0 mm 4 mps 750 mmHg 76%
03:00 +21°C° 0 mm 4 mps 750 mmHg 78%
04:00 +21°C° 0 mm 4 mps 750 mmHg 76%
05:00 +22°C° 0 mm 5 mps 750 mmHg 75%
06:00 +23°C° 0 mm 5 mps 751 mmHg 73%
07:00 +25°C° 0 mm 5 mps 751 mmHg 66%
08:00 +27°C° 0 mm 5 mps 751 mmHg 59%
09:00 +29°C° 0 mm 5 mps 751 mmHg 52%
10:00 +30°C° 0 mm 5 mps 750 mmHg 49%
11:00 +30°C° 0 mm 5 mps 750 mmHg 46%
12:00 +32°C° 0 mm 6 mps 750 mmHg 44%
13:00 +32°C° 0 mm 5 mps 750 mmHg 44%
14:00 +32°C° 0 mm 4 mps 750 mmHg 44%
15:00 +32°C° 0 mm 4 mps 750 mmHg 45%
16:00 +30°C° 0 mm 3 mps 750 mmHg 47%
17:00 +29°C° 0 mm 3 mps 750 mmHg 48%
18:00 +28°C° 0 mm 2 mps 750 mmHg 50%
19:00 +26°C° 0 mm 2 mps 750 mmHg 56%
20:00 +25°C° 0 mm 2 mps 750 mmHg 62%
21:00 +23°C° 0 mm 2 mps 751 mmHg 68%
22:00 +23°C° 0 mm 2 mps 750 mmHg 68%
23:00 +23°C° 0 mm 2 mps 750 mmHg 68%

Day after tomorrow, 15 June, Tuesday

Time Temperature Precipitation Wind Pressure Humidity
00:00 +21°C° 0 mm 2 mps 750 mmHg 68%
01:00 +21°C° 0 mm 2 mps 750 mmHg 65%
02:00 +21°C° 0 mm 2 mps 750 mmHg 62%
03:00 +21°C° 0 mm 3 mps 749 mmHg 58%
04:00 +24°C° 0 mm 2 mps 749 mmHg 53%
05:00 +26°C° 0 mm 2 mps 749 mmHg 47%
06:00 +27°C° 0 mm 2 mps 749 mmHg 42%
07:00 +29°C° 0 mm 3 mps 748 mmHg 41%
08:00 +30°C° 0 mm 4 mps 748 mmHg 40%
09:00 +33°C° 0 mm 5 mps 747 mmHg 39%
10:00 +34°C° 0 mm 5 mps 747 mmHg 39%
11:00 +34°C° 0 mm 4 mps 746 mmHg 38%
12:00 +35°C° 0 mm 4 mps 746 mmHg 38%
13:00 +34°C° 0 mm 5 mps 746 mmHg 41%
14:00 +34°C° 0 mm 5 mps 747 mmHg 43%
15:00 +33°C° 0 mm 6 mps 747 mmHg 46%
16:00 +32°C° 0 mm 6 mps 747 mmHg 51%
17:00 +29°C° 0 mm 6 mps 748 mmHg 55%
18:00 +28°C° 0 mm 6 mps 748 mmHg 60%
19:00 +26°C° 0 mm 5 mps 749 mmHg 68%
20:00 +25°C° 0 mm 4 mps 749 mmHg 76%
21:00 +22°C° 0 mm 3 mps 750 mmHg 84%
22:00 +22°C° 0 mm 3 mps 749 mmHg 84%
23:00 +21°C° 0 mm 3 mps 749 mmHg 83%

16 June, Wednesday

Time Temperature Precipitation Wind Pressure Humidity
00:00 +21°C° 0 mm 3 mps 749 mmHg 82%
01:00 +21°C° 0 mm 2 mps 749 mmHg 80%
02:00 +21°C° 0 mm 2 mps 750 mmHg 78%
03:00 +21°C° 0 mm 2 mps 750 mmHg 76%
04:00 +24°C° 0 mm 1 mps 750 mmHg 68%
05:00 +26°C° 0 mm 1 mps 750 mmHg 61%
06:00 +27°C° 0 mm 1 mps 750 mmHg 53%
07:00 +29°C° 0 mm 1 mps 750 mmHg 48%
08:00 +31°C° 0 mm 2 mps 749 mmHg 42%
09:00 +33°C° 0 mm 3 mps 749 mmHg 37%
10:00 +34°C° 0 mm 3 mps 749 mmHg 36%
11:00 +35°C° 0 mm 4 mps 749 mmHg 34%
12:00 +36°C° 0 mm 4 mps 749 mmHg 33%
13:00 +35°C° 0 mm 4 mps 748 mmHg 34%
14:00 +35°C° 0 mm 4 mps 748 mmHg 34%
15:00 +35°C° 0 mm 4 mps 748 mmHg 35%
16:00 +34°C° 0 mm 3 mps 748 mmHg 40%
17:00 +31°C° 0 mm 3 mps 748 mmHg 44%
18:00 +30°C° 0 mm 3 mps 748 mmHg 49%
19:00 +28°C° 0 mm 2 mps 748 mmHg 54%
20:00 +27°C° 0 mm 1 mps 748 mmHg 60%
21:00 +25°C° 0 mm 1 mps 749 mmHg 65%
22:00 +24°C° 0 mm 1 mps 749 mmHg 65%
23:00 +24°C° 0 mm 1 mps 749 mmHg 65%

17 June, Thursday

Time Temperature Precipitation Wind Pressure Humidity
00:00 +24°C° 0 mm 2 mps 749 mmHg 65%
01:00 +24°C° 0 mm 2 mps 749 mmHg 65%
02:00 +23°C° 0 mm 2 mps 749 mmHg 66%
03:00 +23°C° 0 mm 2 mps 749 mmHg 66%
04:00 +25°C° 0 mm 2 mps 749 mmHg 60%
05:00 +26°C° 0 mm 2 mps 749 mmHg 53%
06:00 +28°C° 0 mm 2 mps 749 mmHg 47%
07:00 +30°C° 0 mm 2 mps 749 mmHg 44%
08:00 +31°C° 0 mm 3 mps 749 mmHg 41%
09:00 +34°C° 0 mm 3 mps 749 mmHg 39%
10:00 +34°C° 0 mm 4 mps 748 mmHg 37%
11:00 +35°C° 0 mm 4 mps 748 mmHg 34%
12:00 +36°C° 0 mm 5 mps 748 mmHg 32%
13:00 +37°C° 0 mm 5 mps 747 mmHg 28%
14:00 +39°C° 0 mm 6 mps 746 mmHg 25%
15:00 +40°C° 0 mm 7 mps 746 mmHg 22%
16:00 +39°C° 0 mm 7 mps 746 mmHg 21%
17:00 +39°C° 0 mm 7 mps 745 mmHg 20%
18:00 +39°C° 0 mm 6 mps 745 mmHg 19%
19:00 +34°C° 0 mm 6 mps 746 mmHg 29%
20:00 +30°C° 0 mm 5 mps 747 mmHg 40%
21:00 +26°C° 0 mm 5 mps 748 mmHg 50%
22:00 +26°C° 0 mm 4 mps 748 mmHg 54%
23:00 +25°C° 0 mm 4 mps 749 mmHg 58%

18 June, Friday

Time Temperature Precipitation Wind Pressure Humidity
00:00 +25°C° 0 mm 4 mps 750 mmHg 62%
01:00 +25°C° 0 mm 4 mps 750 mmHg 64%
02:00 +25°C° 0 mm 4 mps 750 mmHg 65%
03:00 +25°C° 0 mm 5 mps 750 mmHg 67%
04:00 +25°C° 0 mm 5 mps 751 mmHg 69%
05:00 +26°C° 0 mm 5 mps 752 mmHg 70%
06:00 +26°C° 0 mm 6 mps 752 mmHg 72%
07:00 +28°C° 0 mm 6 mps 752 mmHg 67%
08:00 +29°C° 0 mm 6 mps 752 mmHg 62%
09:00 +30°C° 0 mm 6 mps 752 mmHg 57%
10:00 +30°C° 0 mm 6 mps 752 mmHg 53%
11:00 +32°C° 0 mm 6 mps 752 mmHg 50%
12:00 +32°C° 0 mm 6 mps 752 mmHg 46%
13:00 +32°C° 0 mm 5 mps 752 mmHg 45%
14:00 +32°C° 0 mm 4 mps 752 mmHg 43%
15:00 +33°C° 0 mm 3 mps 752 mmHg 42%
16:00 +31°C° 0 mm 3 mps 752 mmHg 44%
17:00 +30°C° 0 mm 3 mps 752 mmHg 45%
18:00 +30°C° 0 mm 3 mps 752 mmHg 46%
19:00 +28°C° 0 mm 3 mps 752 mmHg 51%
20:00 +27°C° 0 mm 3 mps 753 mmHg 55%
21:00 +25°C° 0 mm 3 mps 753 mmHg 60%
22:00 +25°C° 0 mm 3 mps 753 mmHg 61%
23:00 +25°C° 0 mm 3 mps 752 mmHg 62%
Show more

We Need Your Consent

Meteoprog and our Service Providers may store and access personal data such as cookies, device identifiers or other similar technologies on your device and process such data to personalise content and ads, as well as provide social media features and to analyse the traffic.

  • Store and/or access information on your device

    Cookies, device identifiers or other information can be stored or accessed on your device for the purposes indicated above.

  • Personalised ads and content, ad and content measurement, audience insights, and products development

    Ads and content can be personalised based on a profile. More data can be added to better personalise ads and content. Ad and content performance can be measured. Insights about the audience who saw the ads and content can be derived. Such data can be used to develop or improve user’s experience, systems and software.

By clicking ‘I Agree’ you will allow the use of indicated cookies, device identifiers, web beacons or other similar technologies. Your settings can be changed in the browser on your device.

For certain purposes, legitimate interests may be relied on, rather than consent. You can read more about this in our Privacy and Cookie Policy.